Location: Sungai Bunut
(2.6333°N, 113.7333°E)
Time: 08:36:21
(UTC+00:00)

Courier 1B - Pass Details

Date: 05 December 2023
Orbit: 962 x 1209 km, 28.3° (Epoch: 03 March)

Event Time Altitude Azimuth Distance (km) Brightness Sun altitude
Exits shadow 19:23:39 15° 193° (SSW) 2,755 9.9 -40.4°
Maximum altitude 19:27:53 23° 153° (SSE) 2,262 9.7 -39.4°
Drops below altitude 10° 19:33:35 10° 104° (ESE) 3,028 10.8 -38.1°
Sets 19:36:59 0° 90° (E) 3,945 11.4 -37.4°
